Wind_Speed
5 2 9 6 4 4 10 8 15 7 12 12 27 18 8 12 8 4 27 23 29 26 23 20 18 16 16 15 13 12 12 12 11 11 11 11 11 12 12 11 11 10 9 9 10 10 11 10 11
6 4 2 1 3 9 5 15 16 10 8 11 17 19 12 16 13 19 21 27 27 26 23 20 19 16 16 15 13 12 12 11 10 10 10 10 9 9 10 10 9 8 8 7 8 8 8 10 10
6 2 7 5 5 7 7 12 11 9 12 7 14 19 11 14 16 19 26 29 29 24 23 21 20 17 15 15 14 13 11 10 9 8 8 8 7 8 8 8 7 7 8 8 7 7 7 8 8
7 4 5 3 14 9 6 14 6 32 7 6 11 13 9 14 15 25 27 29 28 23 25 23 19 17 16 15 14 12 10 9 8 8 7 6 5 6 7 7 6 7 8 8 7 7 6 6 6
6 2 3 14 11 14 15 11 16 21 1 10 21 13 14 10 23 26 25 29 28 27 26 24 19 16 15 14 14 11 9 9 7 6 5 4 3 3 5 6 6 8 8 7 7 7 6 6 5
3 4 6 11 10 14 13 12 6 14 6 15 12 13 9 11 20 24 23 26 32 28 24 23 19 15 13 13 12 11 9 7 6 4 3 2 1 1 2 4 5 6 6 6 5 5 5 4 4
5 5 9 4 12 14 13 12 12 15 16 12 19 14 12 16 22 22 22 31 30 28 21 20 16 14 13 12 11 9 8 7 5 4 5 4 3 3 1 1 5 4 5 4 3 3 4 6 6
3 4 6 10 14 10 5 13 14 13 8 9 8 8 14 20 22 20 24 20 31 27 22 18 16 14 13 12 11 10 8 7 6 6 5 5 4 4 3 3 4 6 5 4 1 2 4 5 7
3 3 8 10 15 11 9 11 10 13 11 13 13 13 23 24 22 21 20 23 25 22 21 19 17 15 15 14 12 10 9 8 8 8 6 5 5 3 7 4 4 4 3 2 2 3 7 8 6
3 2 8 5 11 12 7 9 19 6 11 15 15 17 24 23 22 22 21 19 19 14 20 17 19 16 13 10 12 10 9 8 7 7 7 9 13 9 16 7 2 1 2 1 1 5 6 10 10
4 6 8 12 7 1 12 7 10 7 13 15 15 14 18 19 18 20 25 21 16 14 18 12 15 15 16 6 11 14 10 13 10 6 6 9 7 14 15 6 2 1 2 2 5 4 7 12 13
4 5 3 2 3 5 9 6 13 14 12 15 18 14 12 10 16 19 26 23 21 18 22 18 17 12 15 13 15 8 8 10 17 12 5 5 3 18 6 6 7 5 4 7 7 9 8 10 9
10 5 2 2 1 4 4 8 12 12 16 19 17 13 11 13 18 12 19 28 22 19 16 20 11 18 12 7 7 4 5 7 6 6 8 7 3 9 11 8 5 8 7 8 8 9 7 7 10
2 3 2 0 2 9 17 30 24 10 18 18 17 16 12 12 15 16 17 18 23 20 20 12 17 10 9 4 3 4 6 7 4 3 11 6 2 10 11 6 2 4 12 8 5 4 5 6 9
12 8 8 5 1 11 18 9 3 10 16 13 15 14 11 12 19 15 18 21 25 22 19 17 15 12 10 7 4 5 6 7 4 3 5 3 6 3 6 6 16 7 7 7 8 4 6 8 8
15 11 9 6 9 6 6 10 5 6 10 13 14 13 10 10 18 14 15 13 23 24 22 21 16 17 13 12 10 10 10 8 7 6 8 6 6 6 6 7 4 4 3 10 8 4 8 5 7
7 4 6 10 4 6 7 7 7 3 8 16 16 12 11 10 14 16 16 14 17 18 22 21 18 15 17 11 10 8 6 12 7 9 6 12 10 9 10 9 3 2 6 9 4 7 8 8 3
12 3 5 6 7 2 5 8 6 8 10 10 15 13 12 12 14 15 17 16 20 21 14 15 18 16 11 14 12 10 9 8 9 8 9 16 7 11 12 8 10 3 7 4 8 5 9 13 8
6 4 6 7 6 6 6 6 6 3 1 5 9 14 16 17 16 23 18 15 19 25 26 18 21 21 16 14 13 13 11 11 8 9 10 12 8 9 9 9 11 7 6 6 3 8 7 12 14
5 8 12 6 5 8 11 12 9 7 6 7 7 7 12 15 20 23 22 25 21 28 28 27 21 24 24 22 21 17 10 17 12 11 8 12 11 12 11 11 12 8 8 6 8 10 7 3 11
10 13 3 5 4 7 9 28 17 29 5 3 1 6 9 9 21 22 22 21 20 30 29 29 28 22 26 21 19 19 15 12 15 15 12 15 14 14 15 11 13 12 7 8 12 9 10 7 11
15 1 3 7 10 12 16 7 13 29 25 8 6 1 8 9 3 15 22 24 23 18 28 26 25 24 21 26 18 20 17 15 14 16 15 16 18 14 15 14 15 14 12 13 12 5 9 7 9
13 4 8 10 10 14 5 10 3 10 19 6 9 10 7 2 5 6 13 24 30 23 19 23 24 22 21 23 25 16 20 17 17 13 15 16 15 17 16 18 17 15 15 14 14 15 8 8 12
10 11 12 15 14 13 17 10 5 6 2 7 9 12 9 13 8 3 15 27 19 23 20 19 25 24 22 19 20 27 17 21 14 18 17 14 19 20 19 21 20 19 19 17 15 14 13 14 13
11 13 12 5 12 12 19 13 8 22 7 11 11 12 14 12 15 14 13 18 18 10 19 14 22 21 19 20 19 21 27 19 18 18 18 20 16 18 21 26 17 18 20 19 18 16 16 13 14
17 16 12 7 16 14 14 12 9 14 11 13 13 13 14 16 15 13 13 18 25 27 14 11 13 17 16 19 20 23 21 21 20 21 18 23 20 18 11 16 19 20 21 19 20 20 20 21 19
17 13 13 16 10 7 9 6 10 14 11 11 12 14 14 14 14 14 15 19 20 18 22 28 24 5 8 14 20 23 25 22 21 20 21 22 25 25 24 19 19 20 22 20 21 19 20 20 19
15 11 13 9 6 4 3 10 6 11 8 9 12 11 12 13 13 12 14 16 15 13 16 17 22 23 18 15 17 8 21 24 23 22 23 21 20 24 25 21 24 23 25 22 22 21 21 21 21
3 4 6 5 7 3 3 3 12 14 27 10 10 11 9 10 11 11 13 15 15 15 15 15 17 19 22 19 17 17 15 10 15 24 24 23 23 24 20 21 22 23 24 24 25 24 23 21 25
8 8 8 4 3 6 13 2 18 25 22 11 10 10 8 8 9 9 12 13 14 15 16 15 13 14 16 18 16 16 17 16 14 7 9 15 16 18 19 22 22 24 24 25 26 25 25 26 27
Wind_Direction
244 218 299 6 3 94 112 205 114 155 66 52 70 81 104 154 144 155 135 137 135 141 143 140 145 153 154 149 147 137 128 123 116 110 103 92 84 81 76 72 70 71 73 73 81 81 96 100 106
265 249 93 81 285 43 46 68 52 58 89 95 95 65 48 70 97 121 143 129 138 141 139 139 144 149 157 155 152 149 138 131 125 116 109 98 89 83 77 71 71 75 82 81 88 91 93 102 110
281 290 263 193 210 68 73 92 81 68 43 50 68 125 116 115 116 133 127 141 134 139 142 145 143 144 146 150 153 161 149 140 134 123 111 101 89 77 71 68 72 87 98 94 96 103 109 115 121
281 358 251 272 62 65 39 65 86 25 38 37 79 70 14 103 120 122 140 146 137 144 140 147 145 138 139 142 147 156 155 149 144 129 119 107 93 79 67 64 67 92 109 100 100 106 116 122 137
225 103 256 73 42 31 47 57 98 152 128 34 93 135 95 61 106 131 147 140 138 138 138 143 148 145 141 142 145 151 155 151 151 140 131 120 105 88 79 79 84 95 102 113 109 116 116 117 141
127 228 12 66 42 66 59 30 63 69 17 107 101 88 87 111 121 139 152 135 128 132 134 142 149 151 154 152 150 155 166 167 166 155 147 145 148 99 79 85 101 101 115 119 125 134 149 159 170
261 267 100 71 71 68 54 54 28 62 40 36 73 83 116 126 138 149 130 128 129 131 135 140 145 152 158 164 165 171 181 186 171 180 200 207 226 235 258 150 118 111 126 134 138 163 180 190 203
78 331 83 139 84 64 351 67 54 76 85 91 120 122 139 131 145 144 131 132 128 132 134 143 153 161 165 169 173 177 185 185 185 204 215 226 248 282 272 255 146 137 126 133 202 256 237 224 217
148 251 46 23 82 75 22 90 103 43 70 53 39 115 121 141 148 143 129 102 115 128 141 155 159 168 178 176 179 179 188 190 205 211 213 222 217 295 250 211 197 138 144 169 219 252 271 248 232
160 23 73 10 53 91 76 70 87 190 113 100 89 104 122 150 151 145 131 131 135 142 154 154 155 166 174 181 187 172 181 195 209 208 222 216 226 160 200 211 252 280 199 102 351 254 243 250 236
32 59 6 76 359 37 54 50 48 125 58 96 113 129 139 158 155 150 141 148 162 163 152 162 165 171 158 195 202 195 181 207 199 178 169 249 241 164 163 197 245 115 314 62 300 358 257 243 238
128 89 80 20 268 35 84 344 69 75 67 94 113 132 133 165 169 164 151 159 164 174 154 163 177 178 149 182 211 163 213 224 192 182 145 289 235 150 317 273 308 292 318 280 279 293 266 241 241
52 36 7 118 64 58 180 68 33 99 101 99 111 118 150 180 147 169 155 156 163 163 165 166 182 169 164 180 186 177 221 264 222 169 166 254 252 141 92 34 291 282 257 282 315 253 254 223 222
109 141 64 331 28 69 49 40 326 112 109 117 133 138 168 176 145 164 144 167 159 170 172 156 170 137 172 197 139 198 218 268 343 176 167 196 83 133 130 99 318 326 234 225 30 209 234 236 215
244 158 132 59 194 82 97 107 105 124 124 136 136 148 155 154 138 161 169 167 156 173 176 174 176 174 174 201 198 236 208 239 274 187 143 229 243 301 131 239 227 210 235 205 264 244 231 225 220
233 209 125 91 0 137 133 100 57 141 148 153 136 139 156 154 153 154 170 167 155 167 174 163 180 181 182 198 197 233 242 211 256 221 187 186 228 254 269 272 145 10 168 247 248 232 252 244 230
307 190 87 125 125 335 28 33 8 213 188 169 139 155 159 162 143 161 174 169 157 156 167 169 174 192 186 195 197 226 242 223 228 246 214 186 201 235 272 292 136 351 320 297 282 261 255 287 49
213 237 168 127 86 92 40 76 7 297 183 161 141 166 165 165 164 168 167 180 162 162 164 175 176 187 208 189 205 235 241 239 226 211 221 191 197 218 228 264 305 294 305 152 290 302 296 303 211
220 15 273 133 121 243 105 84 36 344 282 162 165 171 173 179 166 161 175 177 167 161 179 181 177 188 198 189 194 223 225 235 238 220 228 188 199 225 215 252 279 234 267 239 295 284 317 311 350
239 251 251 127 120 250 131 98 64 34 23 5 330 181 191 188 166 165 170 176 186 165 184 187 193 199 198 207 208 218 232 217 218 228 230 212 219 231 236 234 259 294 313 299 250 274 281 333 7
229 250 50 333 272 245 174 45 340 4 32 104 332 294 297 258 172 163 172 177 187 166 180 192 195 203 202 205 208 226 242 218 217 223 237 215 217 227 231 245 240 263 284 282 294 263 274 313 300
271 81 18 271 254 260 202 120 22 353 320 20 42 26 190 259 259 197 167 171 189 194 175 188 200 199 199 207 208 216 228 241 223 215 232 224 220 228 232 237 235 248 255 274 284 287 269 287 298
275 3 293 274 261 273 141 96 265 198 272 58 58 40 32 195 235 210 225 178 170 186 193 179 190 197 205 211 221 229 220 237 240 241 241 233 232 233 230 233 234 239 242 251 267 286 285 298 303
275 287 270 253 249 247 241 116 236 227 66 91 68 70 46 47 53 348 337 174 157 172 185 191 185 192 200 213 224 225 238 235 242 236 247 248 234 232 226 230 233 234 243 243 259 258 266 261 276
235 250 255 358 293 262 117 98 191 226 219 119 100 74 78 61 46 55 43 29 33 150 176 190 176 183 197 218 228 229 239 246 251 250 252 256 256 254 237 234 233 238 242 252 257 263 256 263 258
230 246 269 151 285 246 36 123 133 182 131 115 106 89 72 66 69 59 47 56 34 21 22 173 165 175 194 219 234 238 244 240 243 244 247 246 254 256 265 251 239 237 240 245 250 245 251 250 251
254 264 288 295 277 265 115 96 224 136 140 122 100 95 86 81 69 56 49 38 41 39 35 41 48 78 208 234 228 234 241 243 248 251 246 246 251 252 253 248 242 245 251 236 244 246 246 246 250
265 327 310 351 337 4 88 76 9 337 300 131 110 98 93 85 77 69 60 53 35 34 30 39 36 29 17 15 18 287 256 248 241 249 253 250 250 247 248 252 244 240 245 243 238 240 246 249 250
150 324 357 339 40 101 335 138 141 286 273 148 114 99 76 78 73 71 53 45 51 30 21 16 13 14 9 2 354 351 353 338 277 258 251 253 252 254 259 262 255 251 248 244 248 243 241 247 248
177 165 167 134 141 228 240 118 179 191 238 134 117 98 85 68 68 65 69 42 28 24 12 17 8 1 1 358 349 338 332 339 347 307 272 259 267 270 269 270 267 267 262 261 253 254 248 245 245
Height
754 756 752 752 778 777 782 789 740 760 747 732 740 761 775 768 778 805 777 781 789 798 804 809 812 816 818 820 823 825 827 828 829 830 831 832 834 834 835 836 838 838 838 838 838 838 838 839 839
757 760 759 780 796 791 774 742 751 744 735 729 738 759 769 775 757 765 775 783 792 799 805 809 813 817 818 821 824 826 828 830 831 832 833 835 836 836 837 837 838 839 839 840 840 840 840 841 842
755 759 761 767 785 778 779 744 743 735 728 731 749 748 763 772 760 766 776 784 792 801 806 810 813 816 819 821 824 827 829 831 833 834 836 837 838 839 839 839 839 839 839 840 841 842 842 843 843
748 747 749 762 765 760 748 742 739 765 735 731 737 769 764 760 761 770 779 784 791 801 806 811 814 817 819 822 824 828 831 833 834 836 838 839 840 840 840 840 840 839 840 841 842 843 844 844 845
745 764 777 765 767 748 732 730 734 762 750 740 749 773 770 764 766 774 780 784 790 799 804 811 815 818 820 822 825 829 832 834 835 837 839 840 840 840 840 840 841 841 842 842 843 844 845 846 846
762 750 773 777 759 743 735 728 732 736 737 740 752 760 768 768 772 778 780 786 791 800 807 811 816 819 821 823 827 830 833 835 837 839 840 840 841 841 842 842 842 843 844 844 844 845 846 846 847
758 768 763 768 763 756 743 731 737 741 743 747 745 769 766 768 776 779 781 787 794 801 808 813 817 819 821 824 827 830 833 835 838 838 838 838 840 842 843 844 842 843 844 844 845 845 846 846 846
746 748 752 754 760 767 740 735 731 738 748 736 740 767 772 770 776 779 786 789 796 803 809 813 817 819 821 823 826 829 832 835 837 836 838 838 839 844 845 845 845 842 844 845 845 846 846 845 845
726 770 762 756 755 755 734 742 734 734 743 741 740 749 758 770 776 780 787 792 799 804 807 812 816 818 819 823 825 827 830 834 834 834 834 835 837 837 842 844 844 844 843 842 843 844 845 844 842
745 759 755 738 735 743 739 738 742 769 747 751 753 756 765 771 776 780 788 795 801 804 808 811 813 816 823 827 829 827 828 831 831 834 833 830 830 833 839 842 842 842 840 840 839 840 841 842 841
734 757 740 737 734 731 735 737 730 744 752 745 760 762 767 770 775 779 789 794 799 804 808 811 813 818 825 820 829 827 825 828 831 830 830 829 827 829 839 842 843 841 840 840 837 838 840 841 839
747 737 737 736 731 732 742 732 740 743 748 744 754 763 767 770 772 778 786 793 799 803 807 809 811 817 824 823 828 827 825 826 830 830 829 827 830 832 833 839 842 843 841 840 838 838 840 841 838
740 739 734 732 727 730 732 743 749 747 741 749 759 767 771 769 773 779 783 790 796 801 805 809 811 814 818 822 823 823 825 826 829 828 830 830 833 830 833 840 842 841 842 844 839 838 839 838 837
735 736 736 730 732 731 745 765 775 749 742 751 760 767 768 767 772 778 786 786 794 799 805 810 812 812 815 818 819 823 826 826 828 829 829 831 834 833 835 844 836 834 838 842 834 835 837 837 835
730 745 738 737 735 743 743 788 764 745 742 751 755 760 762 765 772 777 781 784 791 797 801 806 809 813 817 819 821 823 825 827 829 830 829 830 832 835 837 833 838 834 835 839 838 837 836 835 833
739 735 766 744 738 736 742 781 753 741 741 748 753 759 762 763 768 775 780 783 789 794 800 805 810 813 817 819 821 822 824 826 827 829 829 829 831 833 835 835 833 835 837 836 835 834 832 829 828
744 771 759 759 737 738 745 768 752 735 739 732 746 756 760 763 767 773 778 783 788 794 799 803 807 811 814 818 819 821 822 824 825 826 828 828 829 830 832 833 835 837 835 834 835 834 829 829 827
783 763 755 761 748 744 754 764 754 740 736 741 742 751 757 761 764 771 775 780 786 792 798 802 806 811 814 816 819 819 821 821 823 824 825 825 826 828 829 831 833 834 832 831 827 831 829 827 827
748 756 761 746 740 750 759 767 765 749 739 740 743 745 749 751 754 764 771 778 782 789 795 800 803 807 811 814 817 819 819 820 821 823 823 823 825 826 827 830 831 832 830 828 826 829 831 829 828
748 756 753 742 737 748 756 774 772 764 757 751 748 742 741 739 739 750 757 766 776 784 790 796 800 803 807 810 814 816 817 817 818 820 821 822 823 823 824 826 827 828 827 827 826 825 831 832 829
751 753 750 756 742 738 752 824 811 798 764 757 752 748 741 730 741 742 759 756 771 778 785 791 797 801 805 810 813 814 814 815 815 817 819 819 821 822 823 824 825 825 825 824 824 823 825 829 827
758 730 740 751 759 774 740 854 850 831 810 768 757 749 744 736 743 741 749 746 763 773 780 786 793 800 805 809 811 812 812 812 813 814 816 817 818 820 821 822 823 824 824 823 822 820 819 821 823
749 728 741 742 754 755 757 816 866 838 827 781 767 756 749 741 734 729 725 739 739 766 776 783 789 796 802 806 809 811 811 811 812 812 814 814 816 817 818 819 820 821 821 820 818 817 816 816 817
728 739 741 741 747 775 745 817 855 837 791 784 771 763 757 750 746 743 735 746 739 761 772 779 785 792 798 802 805 807 808 809 810 810 811 813 813 813 814 815 816 818 819 819 818 816 815 815 815
735 751 777 797 784 777 745 785 828 807 783 777 775 770 764 761 756 752 752 753 760 763 769 776 782 789 794 799 802 804 804 807 808 809 810 809 810 811 810 811 815 816 817 818 819 817 816 816 816
739 739 765 817 803 774 753 801 802 777 772 773 773 772 770 769 767 768 768 768 772 774 776 777 780 786 791 795 798 800 801 802 804 805 806 806 807 807 807 809 809 812 815 815 815 815 815 814 815
738 745 718 745 735 752 783 799 795 775 779 780 781 779 779 778 778 778 778 779 782 783 786 784 784 786 789 790 791 795 797 799 801 801 802 803 804 803 803 805 806 808 811 810 811 812 811 811 811
726 719 755 745 789 806 799 836 861 831 804 786 785 788 784 782 783 785 786 787 789 789 791 791 790 792 792 792 794 795 794 794 794 797 798 799 800 799 800 801 802 802 804 805 806 808 809 810 810
739 754 759 761 799 858 846 855 836 842 827 788 786 787 789 787 786 788 791 791 794 795 795 795 795 794 793 793 793 794 792 792 794 793 793 793 795 797 797 798 799 800 801 801 801 801 802 804 805
724 749 764 797 834 836 802 836 820 809 801 783 787 787 790 792 790 790 793 797 798 799 799 798 798 797 797 796 794 793 791 790 792 792 791 791 791 792 793 794 795 795 797 797 798 798 796 796 797